Weather History for Woodward, OK

Change the Weather History Date:

Saturday, November 24, 2012

  Actual Average (KGAG) Record (KGAG)
Temperature  
Mean Temperature 47 °F -  
Max Temperature 66 °F 53 °F 81 °F (1990)
Min Temperature 28 °F 27 °F 8 °F (1950)
Degree Days  
Heating Degree Days 18    
Moisture  
Dew Point 20 °F    
Average Humidity 34    
Maximum Humidity 69    
Minimum Humidity 14    
Precipitation  
Precipitation 0.00 in - - ()
Sea Level Pressure  
Sea Level Pressure 30.13 in    
Wind  
Wind Speed 14 mph (SSW)    
Max Wind Speed 24 mph    
Max Gust Speed 32 mph    
Visibility 10 miles    
Events      
Averages and records for this station are not official NWS values.
T = Trace of Precipitation, MM = Missing Value Source: NWS Daily Summary

Daily Weather History Graph

Daily Weather History Graph

Search for Another Location

Airport:

Trip Planner

Search our weather history database for the weather conditions in past years. The results will help you decide how hot, cold, wet, or windy it might be!

Date:

Astronomy

Nov. 24, 2012 Rise Set
Actual Time 7:25 AM CST 5:24 PM CST
Civil Twilight 6:57 AM CST 5:52 PM CST
Nautical Twilight 6:25 AM CST 6:24 PM CST
Astronomical Twilight 5:54 AM CST 6:55 PM CST
Moon 3:06 PM CST (11/24) 3:48 AM CST (11/24)
Length of Visible Light 10h 55m
Length of Day
9h 59m
Waxing Gibbous, 87% of the Moon is Illuminated
Nov 24
Waxing Gibbous
Nov 28
Full
Dec 6
Last Quarter
Dec 13
New
Dec 19
First Quarter

Hourly Weather History & Observations

Time (CST) Temp. Windchill Dew Point Humidity Pressure Visibility Wind Dir Wind Speed Gust Speed Precip Events Conditions
12:15 AM 35.6 °F 28.6 °F 19.4 °F 52% 30.41 in 10.0 mi SSE 9.2 mph - N/A   Clear
12:35 AM 35.6 °F 29.2 °F 19.4 °F 52% 30.40 in 10.0 mi SSE 8.1 mph - N/A   Clear
12:55 AM 35.6 °F 31.7 °F 19.4 °F 52% 30.40 in 10.0 mi South 4.6 mph - N/A   Clear
1:35 AM 30.2 °F 25.4 °F 19.4 °F 64% 30.38 in 10.0 mi SW 4.6 mph - N/A   Clear
2:15 AM 28.4 °F 23.3 °F 19.4 °F 69% 30.36 in 10.0 mi SSW 4.6 mph - N/A   Clear
2:55 AM 33.8 °F 26.4 °F 21.2 °F 60% 30.35 in 10.0 mi SSW 9.2 mph - N/A   Clear
3:15 AM 35.6 °F 30.7 °F 21.2 °F 56% 30.36 in 10.0 mi SSW 5.8 mph - N/A   Clear
3:35 AM 35.6 °F 28.0 °F 21.2 °F 56% 30.35 in 10.0 mi SSW 10.4 mph - N/A   Clear
3:55 AM 35.6 °F 27.5 °F 21.2 °F 56% 30.33 in 10.0 mi SSW 11.5 mph - N/A   Clear
4:15 AM 35.6 °F 26.6 °F 19.4 °F 52% 30.32 in 10.0 mi SSW 13.8 mph - N/A   Clear
4:35 AM 35.6 °F 26.6 °F 19.4 °F 52% 30.32 in 10.0 mi SSW 13.8 mph - N/A   Clear
4:55 AM 37.4 °F 29.3 °F 19.4 °F 48% 30.31 in 10.0 mi SSW 12.7 mph - N/A   Clear
5:15 AM 37.4 °F 28.5 °F 19.4 °F 48% 30.30 in 10.0 mi SSW 15.0 mph - N/A   Clear
5:35 AM 37.4 °F 28.5 °F 21.2 °F 52% 30.29 in 10.0 mi SSW 15.0 mph - N/A   Clear
5:55 AM 37.4 °F 29.3 °F 21.2 °F 52% 30.29 in 10.0 mi SSW 12.7 mph - N/A   Clear
6:15 AM 37.4 °F 29.3 °F 21.2 °F 52% 30.29 in 10.0 mi SSW 12.7 mph - N/A   Clear
6:35 AM 37.4 °F 29.8 °F 21.2 °F 52% 30.29 in 10.0 mi SSW 11.5 mph - N/A   Clear
6:55 AM 37.4 °F 28.9 °F 21.2 °F 52% 30.28 in 10.0 mi SSW 13.8 mph - N/A   Clear
7:15 AM 35.6 °F 28.0 °F 21.2 °F 56% 30.28 in 10.0 mi SSW 10.4 mph - N/A   Clear
7:35 AM 35.6 °F 28.0 °F 21.2 °F 56% 30.27 in 10.0 mi SW 10.4 mph - N/A   Clear
7:55 AM 37.4 °F 29.3 °F 21.2 °F 52% 30.26 in 10.0 mi SW 12.7 mph - N/A   Clear
8:15 AM 37.4 °F 29.8 °F 21.2 °F 52% 30.26 in 10.0 mi SSW 11.5 mph - N/A   Clear
8:35 AM 41.0 °F 33.9 °F 21.2 °F 45% 30.25 in 10.0 mi SW 12.7 mph 17.3 mph N/A   Clear
8:55 AM 44.6 °F 37.4 °F 21.2 °F 39% 30.24 in 10.0 mi SW 16.1 mph - N/A   Clear
9:15 AM 46.4 °F 39.2 °F 19.4 °F 34% 30.23 in 10.0 mi SSW 18.4 mph 25.3 mph N/A   Clear
9:35 AM 50.0 °F - 19.4 °F 30% 30.23 in 10.0 mi SSW 24.2 mph 28.8 mph N/A   Clear
9:55 AM 51.8 °F - 17.6 °F 26% 30.23 in 10.0 mi SSW 23.0 mph 28.8 mph N/A   Clear
10:15 AM 51.8 °F - 17.6 °F 26% 30.21 in 10.0 mi SSW 20.7 mph 31.1 mph N/A   Clear
10:35 AM 55.4 °F - 17.6 °F 23% 30.21 in 10.0 mi SW 20.7 mph 27.6 mph N/A   Clear
10:55 AM 55.4 °F - 17.6 °F 23% 30.20 in 10.0 mi SSW 20.7 mph 26.5 mph N/A   Clear
11:15 AM 59.0 °F - 17.6 °F 20% 30.19 in 10.0 mi SSW 24.2 mph 28.8 mph N/A   Clear
11:35 AM 60.8 °F - 15.8 °F 17% 30.17 in 10.0 mi SW 19.6 mph 26.5 mph N/A   Clear
11:55 AM 60.8 °F - 15.8 °F 17% 30.15 in 10.0 mi SW 20.7 mph 27.6 mph N/A   Clear
12:15 PM 60.8 °F - 15.8 °F 17% 30.13 in 10.0 mi SSW 23.0 mph 29.9 mph N/A   Clear
12:35 PM 62.6 °F - 15.8 °F 16% 30.10 in 10.0 mi SSW 20.7 mph 28.8 mph N/A   Clear
12:55 PM 64.4 °F - 15.8 °F 15% 30.09 in 10.0 mi SW 21.9 mph 29.9 mph N/A   Clear
1:15 PM 64.4 °F - 15.8 °F 15% 30.07 in 10.0 mi SSW 23.0 mph 27.6 mph N/A   Clear
1:35 PM 64.4 °F - 15.8 °F 15% 30.05 in 10.0 mi SW 21.9 mph 27.6 mph N/A   Clear
1:55 PM 66.2 °F - 15.8 °F 14% 30.04 in 10.0 mi SSW 23.0 mph 28.8 mph N/A   Clear
2:15 PM 66.2 °F - 17.6 °F 15% 30.03 in 10.0 mi SSW 21.9 mph 32.2 mph N/A   Clear
2:35 PM 66.2 °F - 17.6 °F 15% 30.02 in 10.0 mi SSW 20.7 mph 28.8 mph N/A   Clear
2:55 PM 66.2 °F - 17.6 °F 15% 30.02 in 10.0 mi SSW 20.7 mph 27.6 mph N/A   Clear
3:15 PM 66.2 °F - 17.6 °F 15% 30.01 in 10.0 mi SSW 19.6 mph 27.6 mph N/A   Clear
3:35 PM 66.2 °F - 17.6 °F 15% 30.00 in 10.0 mi SSW 18.4 mph 26.5 mph N/A   Clear
3:55 PM 64.4 °F - 17.6 °F 16% 29.99 in 10.0 mi SSW 23.0 mph 28.8 mph N/A   Clear
4:15 PM 64.4 °F - 19.4 °F 18% 29.99 in 10.0 mi SSW 20.7 mph 25.3 mph N/A   Clear
4:35 PM 64.4 °F - 19.4 °F 18% 29.99 in 10.0 mi SSW 20.7 mph 25.3 mph N/A   Clear
4:55 PM 62.6 °F - 17.6 °F 18% 29.99 in 10.0 mi South 18.4 mph - N/A   Clear
5:15 PM 62.6 °F - 17.6 °F 18% 29.98 in 10.0 mi South 13.8 mph 20.7 mph N/A   Clear
5:35 PM 60.8 °F - 19.4 °F 20% 29.97 in 10.0 mi South 12.7 mph - N/A   Clear
5:55 PM 59.0 °F - 19.4 °F 22% 29.97 in 10.0 mi South 11.5 mph - N/A   Clear
6:15 PM 57.2 °F - 19.4 °F 23% 29.97 in 10.0 mi South 12.7 mph - N/A   Clear
6:35 PM 57.2 °F - 21.2 °F 25% 29.97 in 10.0 mi South 12.7 mph - N/A   Clear
6:55 PM 57.2 °F - 21.2 °F 25% 29.96 in 10.0 mi South 12.7 mph 19.6 mph N/A   Clear
7:15 PM 55.4 °F - 19.4 °F 25% 29.96 in 10.0 mi South 15.0 mph - N/A   Clear
7:35 PM 55.4 °F - 19.4 °F 25% 29.95 in 10.0 mi South 17.3 mph - N/A   Clear
7:55 PM 55.4 °F - 21.2 °F 26% 29.95 in 10.0 mi South 19.6 mph 25.3 mph N/A   Clear
8:15 PM 55.4 °F - 21.2 °F 26% 29.95 in 10.0 mi South 19.6 mph - N/A   Clear
8:35 PM 53.6 °F - 21.2 °F 28% 29.95 in 10.0 mi South 19.6 mph 25.3 mph N/A   Clear
8:55 PM 53.6 °F - 23.0 °F 30% 29.94 in 10.0 mi South 19.6 mph 28.8 mph N/A   Clear
9:15 PM 53.6 °F - 23.0 °F 30% 29.93 in 10.0 mi South 20.7 mph 28.8 mph N/A   Clear
9:35 PM 53.6 °F - 23.0 °F 30% 29.93 in 10.0 mi South 23.0 mph 29.9 mph N/A   Clear
9:55 PM 53.6 °F - 24.8 °F 33% 29.93 in 10.0 mi South 21.9 mph 27.6 mph N/A   Clear
10:15 PM 53.6 °F - 24.8 °F 33% 29.92 in 10.0 mi South 23.0 mph 29.9 mph N/A   Clear
10:35 PM 51.8 °F - 26.6 °F 38% 29.91 in 10.0 mi South 23.0 mph 27.6 mph N/A   Clear
10:55 PM 51.8 °F - 26.6 °F 38% 29.91 in 10.0 mi South 20.7 mph 28.8 mph N/A   Clear
11:15 PM 51.8 °F - 26.6 °F 38% 29.91 in 10.0 mi SSW 21.9 mph 28.8 mph N/A   Clear
11:35 PM 51.8 °F - 26.6 °F 38% 29.91 in 10.0 mi SSW 18.4 mph 26.5 mph N/A   Clear
11:55 PM 50.0 °F - 28.4 °F 43% 29.91 in 10.0 mi SSW 17.3 mph 24.2 mph N/A   Clear